USA 254

Last updated on Oct. 20, 2020, 5:51 a.m. UTC

1 40100U 14043B   20293.55758840  .00000123  00000-0  00000+0 0  9990
2 40100   0.8619  95.3412 0000187 161.1034 168.2869  1.00449499  7037
UTC
Height (km)
Latitude
Longitude
Inclination
Orbital Period
UTC large
Height (km)
Speed (km/s)
/
Latitude / Longitude
Inclination (degrees)
Orbital Period (minutes)
Azimuth
Elevation
Range (km)
Doppler Factor
iOS Compass Heading
iOS Angle

Next 30 passes for location: Hong Kong

Rise time Rise Azimuth (degrees) Set time Set Azimuth (degrees) Duration Max altitude (degrees)

No matching passes for this satellites